This demonstration page uses our WeatherBlox Daily Observations layout. Learn more.

Left ArrowRight Arrow

39.12711, -84.51439

Hourly Observations for June 23, 2018

Temp ( °F °C ) Dew Point ( °F °C ) Humidity (%) Winds ( mph kmh ) Pressure ( in mb ) Visibility ( mi km ) Precip ( " mm )
12:53 am 00:53 Mostly Clear 67 19.4 67 19.4 100 100 SSW 3 6 29.70 1006 10 16 N/A
1:34 am 01:34 Mostly Cloudy 68 20 67 19.4 96 96 S 7 11 29.71 1006 10 16 N/A
1:53 am 01:53 Cloudy 68 20 68 20 100 100 S 7 11 29.69 1006 10 16 N/A
2:53 am 02:53 Cloudy 68 20 68 20 100 100 SSW 8 13 29.70 1006 9 14 N/A
3:26 am 03:26 Cloudy 68 20 68 20 100 100 SSW 7 11 29.71 1006 9 14 N/A
3:53 am 03:53 Cloudy 68 20 67 19.4 96 96 SSW 9 15 29.71 1006 9 14 N/A
4:53 am 04:53 Cloudy 68 20 67 19.4 96 96 SW 8 13 29.72 1007 9 14 N/A
5:44 am 05:44 Partly Cloudy 67 19.4 66 18.9 97 97 SW 6 9 29.74 1007 9 14 N/A
5:53 am 05:53 Mostly Clear 67 19.4 66 18.9 97 97 SW 6 9 29.74 1007 9 14 N/A
6:37 am 06:37 Cloudy with Mist and Fog 67 19.4 66 18.9 97 97 S 5 7 29.77 1008 6 10 N/A
6:53 am 06:53 Cloudy 67 19.4 67 19.4 100 100 SSW 7 11 29.76 1008 7 11 N/A
7:53 am 07:53 Cloudy with Light Rain 68 20 67 19.4 96 96 SW 6 9 29.77 1008 7 11 0.01 0.25
8:53 am 08:53 Cloudy 70 21.1 68 20 93 93 SW 8 13 29.78 1008 9 14 N/A
9:53 am 09:53 Cloudy 71 21.7 68 20 90 90 SW 9 15 29.79 1009 10 16 N/A
10:53 am 10:53 Cloudy 72 22.2 68 20 87 87 SSW 8 13 29.78 1009 10 16 N/A
11:02 am 11:02 Cloudy 73 22.8 69 20.6 87 87 WSW 13 20 29.80 1009 10 16 N/A
11:53 am 11:53 Cloudy with Light Rain 69 20.6 68 20 96 96 WSW 10 17 29.81 1009 5 8 0.08 2.03
12:02 pm 12:02 Cloudy with Light Rain 70 21.1 68 20 93 93 WSW 12 19 29.80 1009 5 8 N/A
12:53 pm 12:53 Cloudy 72 22.2 67 19.4 84 84 SW 10 17 29.80 1009 10 16 N/A
1:53 pm 13:53 Cloudy 75 23.9 69 20.6 82 82 S 7 11 29.80 1009 10 16 N/A
2:53 pm 14:53 Cloudy 76 24.4 66 18.9 72 72 WSW 10 17 29.79 1009 10 16 N/A
3:53 pm 15:53 Cloudy 76 24.4 66 18.9 72 72 SW 14 22 29.78 1009 10 16 N/A
4:53 pm 16:53 Cloudy 77 25 67 19.4 71 71 SW 9 15 29.79 1009 10 16 N/A
5:53 pm 17:53 Cloudy 78 25.6 66 18.9 67 67 WSW 12 19 29.79 1009 10 16 N/A
6:53 pm 18:53 Mostly Cloudy 79 26.1 67 19.4 67 67 W 8 13 29.79 1009 10 16 N/A
7:53 pm 19:53 Mostly Cloudy 77 25 67 19.4 71 71 WSW 6 9 29.80 1009 10 16 N/A
8:53 pm 20:53 Mostly Cloudy 76 24.4 66 18.9 72 72 W 10 17 29.80 1009 10 16 N/A
9:53 pm 21:53 Mostly Cloudy 74 23.3 66 18.9 76 76 SW 8 13 29.81 1010 10 16 N/A
10:53 pm 22:53 Cloudy 73 22.8 67 19.4 81 81 SW 5 7 29.82 1010 10 16 N/A
11:53 pm 23:53 Partly Cloudy 69 20.6 67 19.4 93 93 S 5 7 29.84 1011 10 16 N/A

Powered by AerisWeather